• In Hungary
  • List of Countries
  • For 7 days
  • Water Temperature
  • Satellite Maps
  • Weather Map
  • News
  • Weather Widgets
  • user-avatar
    Login

    Hourly Weather Nazaret

    Today, 18 January, Thursday

    Time Temperature Precipitation Wind Pressure Humidity
    00:00 +11°C° 0.2 mm 3 mps 729 mmHg 82%
    01:00 +11°C° 0.2 mm 3 mps 729 mmHg 82%
    02:00 +11°C° 0 mm 3 mps 728 mmHg 84%
    03:00 +11°C° 0.4 mm 4 mps 728 mmHg 84%
    04:00 +11°C° 0.4 mm 4 mps 728 mmHg 84%
    05:00 +10°C° 0.4 mm 5 mps 727 mmHg 85%
    06:00 +10°C° 0.3 mm 5 mps 727 mmHg 83%
    07:00 +10°C° 0.3 mm 6 mps 727 mmHg 82%
    08:00 +11°C° 0 mm 7 mps 727 mmHg 79%
    09:00 +11°C° 0.3 mm 7 mps 727 mmHg 76%
    10:00 +12°C° 0.3 mm 8 mps 726 mmHg 72%
    11:00 +13°C° 0.3 mm 9 mps 726 mmHg 69%
    12:00 +15°C° 0.1 mm 9 mps 726 mmHg 65%
    13:00 +14°C° 0.1 mm 10 mps 725 mmHg 61%
    14:00 +14°C° 0.1 mm 11 mps 724 mmHg 58%
    15:00 +14°C° 0 mm 10 mps 724 mmHg 58%
    16:00 +13°C° 0 mm 9 mps 723 mmHg 59%
    17:00 +12°C° 0 mm 9 mps 723 mmHg 60%
    18:00 +12°C° 1.2 mm 10 mps 722 mmHg 61%
    19:00 +12°C° 1.2 mm 11 mps 721 mmHg 61%
    20:00 +12°C° 1.2 mm 12 mps 721 mmHg 62%
    21:00 +10°C° 2.9 mm 12 mps 721 mmHg 67%
    22:00 +9°C° 2.9 mm 13 mps 720 mmHg 73%
    23:00 +8°C° 2.9 mm 13 mps 720 mmHg 79%

    Tomorrow, 19 January, Friday

    Time Temperature Precipitation Wind Pressure Humidity
    00:00 +8°C° 0.7 mm 13 mps 720 mmHg 75%
    01:00 +7°C° 0.7 mm 13 mps 720 mmHg 72%
    02:00 +7°C° 0.7 mm 13 mps 721 mmHg 69%
    03:00 +7°C° 1.1 mm 12 mps 721 mmHg 70%
    04:00 +7°C° 1.1 mm 11 mps 721 mmHg 72%
    05:00 +7°C° 1.1 mm 10 mps 721 mmHg 74%
    06:00 +7°C° 0.9 mm 10 mps 722 mmHg 72%
    07:00 +7°C° 0.9 mm 11 mps 722 mmHg 70%
    08:00 +7°C° 0.9 mm 11 mps 723 mmHg 68%
    09:00 +8°C° 0.4 mm 12 mps 724 mmHg 65%
    10:00 +9°C° 0.4 mm 12 mps 724 mmHg 62%
    11:00 +9°C° 0.4 mm 12 mps 725 mmHg 60%
    12:00 +9°C° 0.3 mm 12 mps 726 mmHg 58%
    13:00 +10°C° 0.3 mm 12 mps 726 mmHg 56%
    14:00 +10°C° 0.3 mm 12 mps 726 mmHg 55%
    15:00 +9°C° 0.1 mm 10 mps 727 mmHg 58%
    16:00 +10°C° 0.1 mm 9 mps 727 mmHg 61%
    17:00 +9°C° 0.1 mm 7 mps 728 mmHg 63%
    18:00 +8°C° 0 mm 6 mps 729 mmHg 65%
    19:00 +8°C° 0 mm 6 mps 729 mmHg 67%
    20:00 +8°C° 0 mm 5 mps 730 mmHg 69%
    21:00 +7°C° 0 mm 4 mps 731 mmHg 70%
    22:00 +7°C° 0 mm 4 mps 731 mmHg 71%
    23:00 +8°C° 0 mm 3 mps 732 mmHg 72%

    Day after tomorrow, 20 January, Saturday

    Time Temperature Precipitation Wind Pressure Humidity
    00:00 +8°C° 0 mm 3 mps 732 mmHg 71%
    01:00 +8°C° 0 mm 2 mps 732 mmHg 71%
    02:00 +8°C° 0 mm 2 mps 732 mmHg 71%
    03:00 +8°C° 0 mm 2 mps 733 mmHg 72%
    04:00 +8°C° 0 mm 2 mps 733 mmHg 73%
    05:00 +7°C° 0 mm 2 mps 733 mmHg 74%
    06:00 +8°C° 0 mm 2 mps 733 mmHg 74%
    07:00 +8°C° 0 mm 2 mps 734 mmHg 73%
    08:00 +9°C° 0 mm 2 mps 734 mmHg 72%
    09:00 +10°C° 0 mm 2 mps 734 mmHg 68%
    10:00 +13°C° 0 mm 2 mps 735 mmHg 64%
    11:00 +14°C° 0 mm 2 mps 735 mmHg 61%
    12:00 +14°C° 0 mm 2 mps 734 mmHg 59%
    13:00 +15°C° 0 mm 2 mps 734 mmHg 58%
    14:00 +15°C° 0 mm 2 mps 733 mmHg 57%
    15:00 +14°C° 0 mm 2 mps 733 mmHg 61%
    16:00 +13°C° 0 mm 2 mps 733 mmHg 65%
    17:00 +13°C° 0 mm 2 mps 733 mmHg 68%
    18:00 +12°C° 0 mm 1 mps 734 mmHg 70%
    19:00 +12°C° 0 mm 1 mps 734 mmHg 72%
    20:00 +11°C° 0 mm 1 mps 734 mmHg 74%
    21:00 +11°C° 0 mm 1 mps 734 mmHg 75%
    22:00 +11°C° 0 mm 1 mps 734 mmHg 76%
    23:00 +10°C° 0 mm 1 mps 734 mmHg 76%

    21 January, Sunday

    Time Temperature Precipitation Wind Pressure Humidity
    00:00 +9°C° 0 mm 2 mps 734 mmHg 75%
    01:00 +9°C° 0 mm 2 mps 733 mmHg 75%
    02:00 +9°C° 0 mm 2 mps 733 mmHg 74%
    03:00 +9°C° 0 mm 2 mps 733 mmHg 72%
    04:00 +9°C° 0 mm 3 mps 733 mmHg 69%
    05:00 +9°C° 0 mm 3 mps 732 mmHg 67%
    06:00 +9°C° 0 mm 3 mps 732 mmHg 65%
    07:00 +10°C° 0 mm 3 mps 732 mmHg 63%
    08:00 +10°C° 0 mm 4 mps 732 mmHg 61%
    09:00 +12°C° 0 mm 4 mps 732 mmHg 55%
    10:00 +14°C° 0 mm 4 mps 732 mmHg 48%
    11:00 +15°C° 0 mm 5 mps 732 mmHg 42%
    12:00 +16°C° 0 mm 5 mps 731 mmHg 39%
    13:00 +17°C° 0 mm 5 mps 730 mmHg 37%
    14:00 +19°C° 0 mm 5 mps 729 mmHg 34%
    15:00 +18°C° 0 mm 4 mps 729 mmHg 36%
    16:00 +17°C° 0 mm 4 mps 729 mmHg 38%
    17:00 +14°C° 0 mm 3 mps 728 mmHg 40%
    18:00 +14°C° 0 mm 4 mps 728 mmHg 40%
    19:00 +13°C° 0 mm 4 mps 728 mmHg 40%
    20:00 +13°C° 0 mm 4 mps 728 mmHg 41%
    21:00 +12°C° 0 mm 4 mps 727 mmHg 40%
    22:00 +12°C° 0 mm 4 mps 727 mmHg 40%
    23:00 +12°C° 0 mm 4 mps 727 mmHg 40%

    22 January, Monday

    Time Temperature Precipitation Wind Pressure Humidity
    00:00 +12°C° 0 mm 4 mps 726 mmHg 40%
    01:00 +11°C° 0 mm 3 mps 726 mmHg 39%
    02:00 +11°C° 0 mm 3 mps 726 mmHg 38%
    03:00 +11°C° 0 mm 3 mps 725 mmHg 38%
    04:00 +11°C° 0 mm 3 mps 725 mmHg 38%
    05:00 +11°C° 0 mm 4 mps 725 mmHg 38%
    06:00 +11°C° 0 mm 3 mps 725 mmHg 40%
    07:00 +12°C° 0 mm 3 mps 725 mmHg 42%
    08:00 +12°C° 0 mm 3 mps 726 mmHg 44%
    09:00 +14°C° 0 mm 4 mps 726 mmHg 42%
    10:00 +15°C° 0 mm 5 mps 726 mmHg 40%
    11:00 +17°C° 0 mm 6 mps 726 mmHg 37%
    12:00 +17°C° 0 mm 6 mps 725 mmHg 37%
    13:00 +18°C° 0 mm 7 mps 725 mmHg 36%
    14:00 +18°C° 0 mm 7 mps 724 mmHg 35%
    15:00 +16°C° 0 mm 6 mps 724 mmHg 41%
    16:00 +15°C° 0 mm 5 mps 724 mmHg 46%
    17:00 +14°C° 0 mm 4 mps 724 mmHg 52%
    18:00 +13°C° 0 mm 4 mps 724 mmHg 53%
    19:00 +13°C° 0 mm 4 mps 724 mmHg 54%
    20:00 +12°C° 0 mm 4 mps 725 mmHg 55%
    21:00 +12°C° 0.3 mm 5 mps 725 mmHg 56%
    22:00 +12°C° 0.3 mm 5 mps 724 mmHg 58%
    23:00 +12°C° 0.3 mm 5 mps 724 mmHg 59%

    23 January, Tuesday

    Time Temperature Precipitation Wind Pressure Humidity
    00:00 +10°C° 0.5 mm 6 mps 724 mmHg 65%
    01:00 +10°C° 0.5 mm 6 mps 724 mmHg 70%
    02:00 +10°C° 0.5 mm 6 mps 724 mmHg 75%
    03:00 +10°C° 0.3 mm 7 mps 724 mmHg 75%
    04:00 +9°C° 0.3 mm 7 mps 724 mmHg 75%
    05:00 +9°C° 0.3 mm 7 mps 724 mmHg 76%
    06:00 +9°C° 0.8 mm 7 mps 724 mmHg 73%
    07:00 +9°C° 0.8 mm 7 mps 724 mmHg 71%
    08:00 +10°C° 0.8 mm 7 mps 725 mmHg 69%
    09:00 +10°C° 0.9 mm 8 mps 725 mmHg 69%
    10:00 +11°C° 0.9 mm 8 mps 725 mmHg 68%
    11:00 +11°C° 0.9 mm 9 mps 725 mmHg 68%
    12:00 +12°C° 1.1 mm 9 mps 725 mmHg 69%
    13:00 +12°C° 1.1 mm 9 mps 725 mmHg 70%
    14:00 +12°C° 1.1 mm 8 mps 724 mmHg 71%
    15:00 +11°C° 1.4 mm 8 mps 725 mmHg 73%
    16:00 +11°C° 1.4 mm 7 mps 725 mmHg 75%
    17:00 +11°C° 1.4 mm 6 mps 725 mmHg 77%
    18:00 +11°C° 2.2 mm 6 mps 725 mmHg 78%
    19:00 +10°C° 2.2 mm 6 mps 725 mmHg 79%
    20:00 +10°C° 2.2 mm 5 mps 725 mmHg 81%
    21:00 +10°C° 1.6 mm 5 mps 725 mmHg 82%
    22:00 +10°C° 1.6 mm 5 mps 725 mmHg 84%
    23:00 +9°C° 1.6 mm 5 mps 725 mmHg 85%
    Show more